Moapa Valley, Nevada Weather observations

Data are for 10 minute period ending at time listed.
 Day   Time   Solar   Ave.   Ave.  Ave.  Vector  Max.   Baro.   Total    
  of    of     Rad.   Air    Rel.  Wind   Wind   Wind  Press.  Precip.   
Year   Day            Temp.  Hum.  Speed  Dir.   Gust                    
2015   (PST)  Kw/m2    F      %     mph   deg.    mph    mb.     in.     
-------------------------------------------------------------------------
 216    4:20   0.00   74.4    25    4.4   321     5.6   962.7    0.00 
 216    4:30   0.00   73.6    26    2.9   329     4.2   962.8    0.00 
 216    4:40   0.00   73.0    26    2.6   324     3.5   962.9    0.00 
 216    4:50   0.00   73.3    25    2.0   305     3.8   963.1    0.00 
 216    5:00   0.01   73.2    27    0.7   247     1.7   963.2    0.00 
 216    5:10   0.02   73.1    27    2.5   303     3.5   963.4    0.00 
 216    5:20   0.06   72.6    30    2.4   269     3.1   963.6    0.00 
 216    5:30   0.09   73.1    29    1.9   325     2.4   963.6    0.00 
 216    5:40   0.12   74.5    29    2.6   316     3.5   963.6    0.00 
 216    5:50   0.15   76.1    30    2.5   306     3.8   963.8    0.00 
 216    6:00   0.18   78.3    27    2.7   314     3.5   963.9    0.00 
 216    6:10   0.22   80.1    24    3.5   325     4.6   964.0    0.00 
 216    6:20   0.26   81.7    23    3.4   322     4.9   964.1    0.00 
 216    6:30   0.30   83.1    22    3.8   320     4.9   964.1    0.00 
 216    6:40   0.34   84.3    22    3.9   324     5.3   964.3    0.00 
 216    6:50   0.38   85.8    20    4.2   328     5.3   964.4    0.00 
 216    7:00   0.42   86.9    20    4.2   321     5.6   964.5    0.00 
 216    7:10   0.46   87.7    19    4.9   319     6.3   964.6    0.00 
 216    7:20   0.50   88.4    20    4.9   310     7.1   964.6    0.00 
 216    7:30   0.54   89.2    18    5.3   314     7.8   964.6    0.00 
 216    7:40   0.58   89.9    17    5.6   322     7.8   964.6    0.00 
 216    7:50   0.62   91.0    16    4.4   322     6.0   964.6    0.00 
 216    8:00   0.65   91.7    16    4.2   324     6.3   964.6    0.00 
 216    8:10   0.69   92.4    15    3.3   332     4.6   964.6    0.00 
 216    8:20   0.72   93.9    16    2.0   332     3.5   964.6    0.00 
 216    8:30   0.76   94.4    17    1.7   241     3.5   964.5    0.00 
 216    8:40   0.79   94.0    23    1.5   170     2.4   964.4    0.00 
 216    8:50   0.82   94.5    22    1.8   149     2.8   964.4    0.00 
 216    9:00   0.85   94.7    23    1.5   172     2.4   964.4    0.00 
 216    9:10   0.88   96.8    20    1.1   169     2.1   964.4    0.00 
 216    9:20   0.91   97.2    22    1.9   161     3.1   964.4    0.00 
 216    9:30   0.94   97.4    17    1.4   166     2.8   964.3    0.00 
 216    9:40   0.96   97.3    22    3.2   128     9.6   964.2    0.00 
 216    9:50   0.98   95.2    27    2.9   145     6.3   964.2    0.00 
 216   10:00   1.01   96.4    24    3.4   148     7.8   964.2    0.00 
 216   10:10   1.02   95.5    23    4.8   135     8.5   964.2    0.00 
 216   10:20   1.04   95.6    26    4.2   131     7.4   964.1    0.00 
 216   10:30   1.06   96.4    25    4.7   120     8.8   964.1    0.00 
 216   10:40   1.07   96.6    22    5.6   127    11.3   963.9    0.00 
 216   10:50   1.08   97.6    19    6.5   136    13.8   963.8    0.00 
 216   11:00   1.09   97.8    20    6.4   134    10.3   963.7    0.00 
 216   11:10   1.10   98.0    20    6.3   145    11.0   963.5    0.00 
 216   11:20   1.11   98.6    20    6.1   172    11.7   963.4    0.00 
 216   11:30   1.12   98.7    20    6.3   146     9.6   963.2    0.00 
 216   11:40   1.12   99.4    20    5.7   157    10.6   963.1    0.00 
 216   11:50   1.12   99.6    19    5.4   179    11.7   963.1    0.00 
 216   12:00   1.10   99.6    21    5.4   120     9.6   963.0    0.00 
 216   12:10   1.06  100.1    18    5.5   110    16.0   962.8    0.00 
 216   12:20   1.14  100.9    16    8.8   193    14.6   962.8    0.00 
 216   12:30   1.11  100.5    15    7.6   178    14.6   962.7    0.00 
 216   12:40   1.13  101.1    16    6.9   208    13.1   962.7    0.00 
 216   12:50   1.11  101.7    14    5.0   154    11.7   962.5    0.00 
 216   13:00   1.05  101.2    18    4.8   148     8.8   962.3    0.00 
 216   13:10   0.89  101.4    16    5.4   188     9.9   962.2    0.00 
 216   13:20   0.98  101.2    14    6.3   202     9.9   962.1    0.00 
 216   13:30   0.85  100.3    16    5.0   164    14.6   962.0    0.00 
 216   13:40   0.94  100.7    13    8.3   153    12.8   961.8    0.00 
 216   13:50   0.58   99.3    13    7.7   142    13.5   961.6    0.00 
 216   14:00   0.48   99.5    13    6.5   172    15.6   961.6    0.00 
 216   14:10   0.59   99.0    14    6.2   187    11.0   961.5    0.00 
 216   14:20   0.51   99.5    14    6.3   195    11.3   961.5    0.00 
 216   14:30   0.86   99.6    17    4.8   169     8.1   961.5    0.00 
 216   14:40   0.75  101.1    14    7.1   157    11.7   961.3    0.00 
 216   14:50   0.58  100.1    15    6.3   164    13.5   961.2    0.00 
 216   15:00   0.71  100.7    15    4.5   176     8.8   961.1    0.00 
 216   15:10   0.80  102.1    14    5.4   150     8.1   960.9    0.00 
 216   15:20   0.62  101.1    14    6.4   169    13.1   960.8    0.00 
 216   15:30   0.64  101.3    15    4.8   191    13.5   960.7    0.00 
 216   15:40   0.34  100.7    13    6.4   190    10.3   960.7    0.00 
 216   15:50   0.29   98.8    15    4.6   126     8.5   960.6    0.00 
 216   16:00   0.30   99.2    15    5.6   156    14.2   960.5    0.00 
 216   16:10   0.27   98.2    14    7.3   137    12.1   960.6    0.00 
 216   16:20   0.22   98.0    14    6.3   122    11.7   960.4    0.00 
 216   16:30   0.23   97.9    15    4.9   138    11.7   960.2    0.00 
 216   16:40   0.27   98.7    13    7.1   144    11.7   960.2    0.00 
 216   16:50   0.26   98.7    13    6.5   127    10.6   960.2    0.00 
 216   17:00   0.19   97.7    15    5.0   133    13.1   960.2    0.00 
 216   17:10   0.23   98.5    14    4.9   150     9.6   960.2    0.00 
 216   17:20   0.15   97.6    14    6.2   123    10.6   960.0    0.00 
 216   17:30   0.13   96.5    15    5.9   121     9.6   960.0    0.00 
 216   17:40   0.10   96.2    15    4.9   126     8.5   960.0    0.00 
 216   17:50   0.09   95.4    17    4.6   108     6.7   959.9    0.00 
 216   18:00   0.08   94.7    18    4.6   118     6.3   960.0    0.00 
 216   18:10   0.09   94.0    18    4.3   123     6.0   960.0    0.00 
 216   18:20   0.07   93.6    19    3.9   113     5.3   960.0    0.00 
 216   18:30   0.02   94.5    16    3.7   115     5.3   960.1    0.00 
 216   18:40   0.01   94.5    15    3.4   110     4.2   960.2    0.00 
 216   18:50   0.00   94.6    14    3.3   121     4.2   960.2    0.00 
 216   19:00   0.00   94.7    15    2.1   162     3.8   960.3    0.00 
 216   19:10   0.00   91.3    17    1.5    82     2.8   960.4    0.00 
 216   19:20   0.00   87.3    23    1.6   142     2.8   960.5    0.00 
 216   19:30   0.00   86.3    20    1.1   312     2.4   960.6    0.00 
 216   19:40   0.00   86.4    20    2.0    23     2.8   960.7    0.00 
 216   19:50   0.00   84.0    24    1.3   312     2.4   960.7    0.00 
 216   20:00   0.00   84.1    22    2.0   293     3.1   960.8    0.00 
 216   20:10   0.00   84.4    20    1.7   322     2.8   960.9    0.00 
 216   20:20   0.00   83.3    23    1.6   309     3.1   961.0    0.00 
 216   20:30   0.00   83.0    22    1.3   350     2.1   961.1    0.00 
 216   20:40   0.00   82.4    20    1.3   333     1.7   961.1    0.00 
 216   20:50   0.00   82.8    19    0.7   317     1.7   961.1    0.00 
 216   21:00   0.00   82.5    18    1.4   298     2.8   961.2    0.00 
 216   21:10   0.00   82.7    18    1.6   299     2.4   961.2    0.00 
 216   21:20   0.00   82.3    20    1.3   286     2.1   961.2    0.00 
 216   21:30   0.00   80.5    25    1.4   253     3.5   961.2    0.00 
 216   21:40   0.00   78.4    28    1.2   279     3.1   961.2    0.00 
 216   21:50   0.00   77.1    26    2.0   341     2.4   961.2    0.00 
 216   22:00   0.00   77.3    28    2.1   322     2.8   961.3    0.00 
 216   22:10   0.00   76.5    29    1.4   337     2.4   961.4    0.00 
 216   22:20   0.00   75.9    32    2.1   262     3.5   961.4    0.00 
 216   22:30   0.00   75.0    32    1.3    30     2.4   961.5    0.00 
 216   22:40   0.00   75.4    30    2.1   307     3.5   961.5    0.00 
 216   22:50   0.00   75.4    31    2.0   317     2.8   961.4    0.00 
 216   23:00   0.00   74.6    37    1.1   295     2.8   961.5    0.00 
 216   23:10   0.00   73.6    33    1.8   358     3.8   961.7    0.00 
 216   23:20   0.00   74.6    30    2.0   316     3.8   961.7    0.00 
 216   23:30   0.00   74.4    32    1.5   294     2.1   961.7    0.00 
 216   23:40   0.00   73.1    34    1.9   276     3.8   961.8    0.00 
 216   23:50   0.00   73.1    33    1.5   288     2.8   961.8    0.00 
 217    0:00   0.00   75.0    32    1.4     8     2.1   961.8    0.00 
 217    0:10   0.00   73.5    32    1.8   299     2.8   961.9    0.00 
 217    0:20   0.00   72.8    34    1.3   338     2.4   961.9    0.00 
 217    0:30   0.00   71.4    41    2.0    56     3.1   961.8    0.00 
 217    0:40   0.00   70.1    42    2.1   264     4.2   961.8    0.00 
 217    0:50   0.00   70.6    41    1.7   262     3.5   961.8    0.00 
 217    1:00   0.00   71.9    35    2.0   287     3.1   962.0    0.00 
 217    1:10   0.00   71.2    38    1.3   269     2.1   962.0    0.00 
 217    1:20   0.00   71.0    36    1.8   322     3.1   962.0    0.00 
 217    1:30   0.00   70.6    35    1.8     4     2.8   962.1    0.00 
 217    1:40   0.00   70.5    37    1.4   352     2.4   962.2    0.00 
 217    1:50   0.00   71.0    34    2.1   324     2.8   962.3    0.00 
 217    2:00   0.00   70.6    38    2.3   350     3.8   962.3    0.00 
 217    2:10   0.00   70.8    35    3.4   294     6.0   962.3    0.00 
 217    2:20   0.00   71.4    35    1.7   295     3.5   962.4    0.00 
 217    2:30   0.00   70.4    41    1.2   253     2.4   962.4    0.00 
 217    2:40   0.00   69.6    38    1.0     1     2.4   962.3    0.00 
 217    2:50   0.00   69.6    35    1.9   334     3.1   962.3    0.00 
 217    3:00   0.00   69.9    35    2.5   332     3.8   962.4    0.00 
 217    3:10   0.00   69.7    39    1.5    11     2.8   962.5    0.00 
 217    3:20   0.00   69.2    38    2.8   333     3.8   962.5    0.00 
 217    3:30   0.00   70.6    34    2.9   354     3.8   962.6    0.00 
 217    3:40   0.00   70.6    35    1.2   293     2.4   962.6    0.00 
 217    3:50   0.00   70.9    37    1.8   256     3.5   962.6    0.00 
 217    4:00   0.00   68.7    42    1.6   295     2.8   962.7    0.00 
 217    4:10   0.00   69.4    38    2.2     6     3.5   962.7    0.00 

Return to Moapa Valley graphs page.


Western Regional Climate Center,wrcc@dri.edu